YM Initiative — A8HX4 — position and weather

sailwx.info

Track history (hours):
 
Tides and Currents Weather Stations Pressure Air Temp Water Temp Dewpoint Dewpoint Depression Visibility Wind Speed Wind Dir Waves Ship Positions

YM Initiative

Last reported at 2014-Oct-20 02:15 UTC. Time now 2014-Oct-21 11:59 UTC.
Position N 01°15' E 104°06'.

Length 173 m; draft 7.7 m.

Type: Cargo ship. MMSI: 635961368.

Date/timePositionNaut miles runAvg speedWind from/ knotsBaromVisibWave heightAir tempDewpointWater temp
2014-Oct-20 02:15N 01°15' E 104°06'1116.0
2014-Oct-20 01:33N 01°13' E 103°55'17 0.4
2014-Oct-18 12:04N 01°12' E 103°39'610.9
2014-Oct-18 11:31N 01°15' E 103°44'3 2.5
2014-Oct-18 10:27N 01°16' E 103°46'0 0.0
2014-Oct-18 09:24N 01°16' E 103°46'0 0.0
2014-Oct-18 08:30N 01°16' E 103°46'0 0.0
2014-Oct-18 07:30N 01°16' E 103°46'0 0.0
2014-Oct-18 06:33N 01°16' E 103°46'0 0.0
2014-Oct-18 05:30N 01°16' E 103°46'0 0.0
2014-Oct-18 04:30N 01°16' E 103°46'0 0.0
2014-Oct-18 03:21N 01°16' E 103°46'0 0.0
2014-Oct-18 02:33N 01°16' E 103°46'0 0.0
2014-Oct-18 01:12N 01°16' E 103°46'0 0.0
2014-Oct-18 00:30N 01°16' E 103°46'0 0.0
2014-Oct-17 23:09N 01°16' E 103°46'0 0.0
2014-Oct-17 22:33N 01°16' E 103°46'0 0.0
2014-Oct-17 21:33N 01°16' E 103°46'0 0.0
2014-Oct-17 20:33N 01°16' E 103°46'0 0.0
2014-Oct-17 19:33N 01°16' E 103°46'0 0.0
2014-Oct-17 18:33N 01°16' E 103°46'0 0.0
2014-Oct-17 15:30N 01°16' E 103°46'0 0.0
2014-Oct-17 14:18N 01°16' E 103°46'1 1.9
2014-Oct-17 13:33N 01°15' E 103°47'6 6.4
2014-Oct-17 12:33N 01°13' E 103°53'7 7.3
2014-Oct-17 11:32N 01°16' E 104°00'1110.7
2014-Oct-17 10:33N 01°17' E 104°11'  
2014-Oct-12 00:15N 01°16' E 104°14'1116.6
2014-Oct-11 23:33N 01°15' E 104°02'1413.8
2014-Oct-11 22:33N 01°11' E 103°49'6 5.7
2014-Oct-11 21:33N 01°17' E 103°47'0 0.0
2014-Oct-11 20:33N 01°17' E 103°47'0 0.0
2014-Oct-11 19:33N 01°17' E 103°47'0 0.0
2014-Oct-11 18:33N 01°17' E 103°47'0 0.0
2014-Oct-11 17:30N 01°17' E 103°47'0 0.0
2014-Oct-11 16:33N 01°17' E 103°47'0 0.0
2014-Oct-11 15:33N 01°17' E 103°47'0 0.0
2014-Oct-11 14:33N 01°17' E 103°47'0 0.0
2014-Oct-11 13:30N 01°17' E 103°47'0 0.0
2014-Oct-11 12:33N 01°17' E 103°47'0 0.0
2014-Oct-11 11:33N 01°17' E 103°47'0 0.0
2014-Oct-11 10:33N 01°17' E 103°47'0 0.0
2014-Oct-11 09:33N 01°17' E 103°47'0 0.0
2014-Oct-11 08:33N 01°17' E 103°47'0 0.0
2014-Oct-11 07:31N 01°17' E 103°47'5 5.6
2014-Oct-11 06:33N 01°12' E 103°50'6 6.4
2014-Oct-11 05:33N 01°14' E 103°56'8 7.7
2014-Oct-11 04:33N 01°16' E 104°03'  
Track history (hours):
 
Tides and Currents Weather Stations Pressure Air Temp Water Temp Dewpoint Dewpoint Depression Visibility Wind Speed Wind Dir Waves Ship Positions

YM Initiative

Last reported at 2014-Oct-20 02:15 UTC. Time now 2014-Oct-21 11:59 UTC.
Position N 01°15' E 104°06'.

Length 173 m; draft 7.7 m.

Type: Cargo ship. MMSI: 635961368.

Date/timePositionNaut miles runAvg speedWind from/ knotsBaromVisibWave heightAir tempDewpointWater temp
2014-Oct-20 02:15N 01°15' E 104°06'1116.0
2014-Oct-20 01:33N 01°13' E 103°55'17 0.4
2014-Oct-18 12:04N 01°12' E 103°39'610.9
2014-Oct-18 11:31N 01°15' E 103°44'3 2.5
2014-Oct-18 10:27N 01°16' E 103°46'0 0.0
2014-Oct-18 09:24N 01°16' E 103°46'0 0.0
2014-Oct-18 08:30N 01°16' E 103°46'0 0.0
2014-Oct-18 07:30N 01°16' E 103°46'0 0.0
2014-Oct-18 06:33N 01°16' E 103°46'0 0.0
2014-Oct-18 05:30N 01°16' E 103°46'0 0.0
2014-Oct-18 04:30N 01°16' E 103°46'0 0.0
2014-Oct-18 03:21N 01°16' E 103°46'0 0.0
2014-Oct-18 02:33N 01°16' E 103°46'0 0.0
2014-Oct-18 01:12N 01°16' E 103°46'0 0.0
2014-Oct-18 00:30N 01°16' E 103°46'0 0.0
2014-Oct-17 23:09N 01°16' E 103°46'0 0.0
2014-Oct-17 22:33N 01°16' E 103°46'0 0.0
2014-Oct-17 21:33N 01°16' E 103°46'0 0.0
2014-Oct-17 20:33N 01°16' E 103°46'0 0.0
2014-Oct-17 19:33N 01°16' E 103°46'0 0.0
2014-Oct-17 18:33N 01°16' E 103°46'0 0.0
2014-Oct-17 15:30N 01°16' E 103°46'0 0.0
2014-Oct-17 14:18N 01°16' E 103°46'1 1.9
2014-Oct-17 13:33N 01°15' E 103°47'6 6.4
2014-Oct-17 12:33N 01°13' E 103°53'7 7.3
2014-Oct-17 11:32N 01°16' E 104°00'1110.7
2014-Oct-17 10:33N 01°17' E 104°11'  
2014-Oct-12 00:15N 01°16' E 104°14'1116.6
2014-Oct-11 23:33N 01°15' E 104°02'1413.8
2014-Oct-11 22:33N 01°11' E 103°49'6 5.7
2014-Oct-11 21:33N 01°17' E 103°47'0 0.0
2014-Oct-11 20:33N 01°17' E 103°47'0 0.0
2014-Oct-11 19:33N 01°17' E 103°47'0 0.0
2014-Oct-11 18:33N 01°17' E 103°47'0 0.0
2014-Oct-11 17:30N 01°17' E 103°47'0 0.0
2014-Oct-11 16:33N 01°17' E 103°47'0 0.0
2014-Oct-11 15:33N 01°17' E 103°47'0 0.0
2014-Oct-11 14:33N 01°17' E 103°47'0 0.0
2014-Oct-11 13:30N 01°17' E 103°47'0 0.0
2014-Oct-11 12:33N 01°17' E 103°47'0 0.0
2014-Oct-11 11:33N 01°17' E 103°47'0 0.0
2014-Oct-11 10:33N 01°17' E 103°47'0 0.0
2014-Oct-11 09:33N 01°17' E 103°47'0 0.0
2014-Oct-11 08:33N 01°17' E 103°47'0 0.0
2014-Oct-11 07:31N 01°17' E 103°47'5 5.6
2014-Oct-11 06:33N 01°12' E 103°50'6 6.4
2014-Oct-11 05:33N 01°14' E 103°56'8 7.7
2014-Oct-11 04:33N 01°16' E 104°03'  

Dump ship's entire track history